Location: Spruce Knob
(38.6995°N, 79.5330°W)
Time: 20:57:02
(UTC-04:00)

Transit 2A - Pass Details

Date: 11 August 2022
Orbit: 601 x 956 km, 66.7° (Epoch: 27 September)

Event Time Altitude Azimuth Distance (km) Brightness Sun altitude
Rises 21:47:20 0° 332° (NNW) 2,858 10.2 -16.3°
Reaches altitude 10° 21:49:33 10° 333° (NNW) 1,963 9.1 -16.7°
Maximum altitude 21:53:56 84° 62° (ENE) 636 5.5 -17.4°
Enters shadow 21:55:58 33° 148° (SSE) 1,077 6.3 -17.7°
